DW5735 Weather Reports


Display with metric or nautical units.
time (UTC)temp
F
wind
direction
speed
MPH
gust
MPH
rain 1hr
in
rain 24hr
in
rain mn
in
humidity
%
barometer
mb
20260504223820 78 25 4.0 14.0 0.00 0.00 0.00 30 1008.6
20260504223352 78 43 7.0 14.0 0.00 0.00 0.00 28 1008.7
20260504223124 77 36 9.0 14.0 0.00 0.00 0.00 29 1007.7
20260504222332 79 34 3.0 11.0 0.00 0.00 0.00 27 1008.8
20260504221836 78 264 2.0 11.0 0.00 0.00 0.00 28 1008.8
20260504221609 77 292 8.0 12.0 0.00 0.00 0.00 27 1007.8
20260504221329 78 354 6.0 12.0 0.00 0.00 0.00 30 1008.8
20260504220829 79 25 7.0 11.0 0.00 0.00 0.00 28 1008.8
20260504220333 79 40 4.0 10.0 0.00 0.00 0.00 27 1008.8
20260504220107 79 11 4.0 7.0 0.00 0.00 0.00 26 1007.9
20260504215820 79 81 2.0 9.0 0.00 0.00 0.00 27 1008.9
20260504215329 78 23 4.0 13.0 0.00 0.00 0.00 28 1009.0
20260504214833 78 56 1.0 14.0 0.00 0.00 0.00 28 1009.1
20260504214606 77 26 10.0 14.0 0.00 0.00 0.00 29 1008.1
20260504214324 78 31 4.0 11.0 0.00 0.00 0.00 29 1009.1
20260504213838 78 90 2.0 14.0 0.00 0.00 0.00 28 1009.2
20260504213331 77 49 12.0 14.0 0.00 0.00 0.00 31 1009.2
20260504213057 78 51 11.0 14.0 0.00 0.00 0.00 29 1008.2
20260504212855 79 49 7.0 14.0 0.00 0.00 0.00 28 1009.2
20260504212318 78 91 8.0 12.0 0.00 0.00 0.00 29 1009.4
20260504211823 77 26 4.0 15.0 0.00 0.00 0.00 29 1009.3
20260504211608 76 72 7.0 15.0 0.00 0.00 0.00 29 1008.4
20260504211329 76 40 12.0 15.0 0.00 0.00 0.00 30 1009.4
20260504210828 77 41 9.0 10.0 0.00 0.00 0.00 33 1009.4
20260504210333 78 64 6.0 10.0 0.00 0.00 0.00 28 1009.4
20260504210006 78 88 4.0 9.0 0.00 0.00 0.00 29 1008.4
20260504205828 78 95 5.0 10.0 0.00 0.00 0.00 29 1009.4
20260504205328 77 52 4.0 8.0 0.00 0.00 0.00 31 1009.5
20260504204822 77 85 3.0 10.0 0.00 0.00 0.00 32 1009.5
20260504204342 76 36 3.0 10.0 0.00 0.00 0.00 32 1009.6
20260504203825 77 25 7.0 8.0 0.00 0.00 0.00 34 1009.6
20260504203320 77 326 2.0 10.0 0.00 0.00 0.00 32 1009.7
20260504203136 76 91 1.0 10.0 0.00 0.00 0.00 32 1008.7
20260504202829 76 33 5.0 10.0 0.00 0.00 0.00 32 1009.7
20260504202327 76 316 0.0 4.0 0.00 0.00 0.00 38 1009.7
20260504201832 75 357 0.0 4.0 0.00 0.00 0.00 34 1009.7
20260504201601 74 36 1.0 4.0 0.00 0.00 0.00 34 1008.7
20260504201323 74 306 1.0 3.0 0.00 0.00 0.00 36 1009.7
20260504200328 74 346 2.0 4.0 0.00 0.00 0.00 46 1009.8
20260504200105 73 134 0.0 5.0 0.00 0.00 0.00 36 1008.9
20260504195820 73 252 3.0 6.0 0.00 0.00 0.00 38 1009.9
20260504195332 73 259 3.0 6.0 0.00 0.00 0.00 36 1009.8
20260504194834 72 224 3.0 8.0 0.00 0.00 0.00 41 1009.9
20260504194558 70 242 2.0 8.0 0.00 0.00 0.00 42 1009.1
20260504194338 71 225 4.0 8.0 0.00 0.00 0.00 41 1010.0
20260504193843 70 231 3.0 5.0 0.00 0.00 0.00 44 1010.1
20260504193338 69 218 4.0 6.0 0.00 0.00 0.00 47 1010.2
20260504193013 69 219 2.0 6.0 0.00 0.00 0.00 51 1009.3
20260504192835 70 208 5.0 6.0 0.00 0.00 0.00 50 1010.2
20260504192343 71 231 2.0 4.0 0.00 0.00 0.00 42 1010.2
20260504191902 70 216 3.0 4.0 0.00 0.00 0.00 44 1010.2
20260504191604 69 219 1.0 5.0 0.00 0.00 0.00 46 1009.3
20260504191336 69 218 2.0 5.0 0.00 0.00 0.00 46 1010.3
20260504190852 68 239 5.0 6.0 0.00 0.00 0.00 48 1010.3
20260504190322 67 256 5.0 6.0 0.00 0.00 0.00 51 1010.4
20260504190104 66 225 4.0 7.0 0.00 0.00 0.00 54 1009.4
20260504185853 66 225 2.0 4.0 0.00 0.00 0.00 59 1010.4
20260504185330 66 232 0.0 6.0 0.00 0.00 0.00 56 1010.5
20260504184823 66 236 4.0 6.0 0.00 0.00 0.00 60 1010.5
20260504184607 66 242 5.0 7.0 0.00 0.00 0.00 49 1009.6
20260504184350 67 225 1.0 3.0 0.00 0.00 0.00 54 1010.6
20260504183834 66 252 3.0 3.0 0.00 0.00 0.00 49 1010.7
20260504183333 66 245 2.0 4.0 0.00 0.00 0.00 50 1010.7
20260504183105 65 208 1.0 4.0 0.00 0.00 0.00 53 1009.8
20260504182318 65 225 1.0 3.0 0.00 0.00 0.00 51 1010.8
20260504181823 65 252 2.0 3.0 0.00 0.00 0.00 54 1010.9
20260504181557 64 255 2.0 4.0 0.00 0.00 0.00 52 1010.0
20260504181334 64 252 2.0 5.0 0.00 0.00 0.00 53 1010.8
20260504180833 64 235 2.0 5.0 0.00 0.00 0.00 55 1010.9
20260504180323 64 228 3.0 5.0 0.00 0.00 0.00 61 1011.0
20260504180117 64 236 3.0 5.0 0.00 0.00 0.00 51 1010.1
20260504175824 65 252 0.0 2.0 0.00 0.00 0.00 54 1010.9
20260504175324 64 228 0.0 6.0 0.00 0.00 0.00 55 1011.0
20260504174841 63 218 2.0 6.0 0.00 0.00 0.00 58 1011.0
20260504174554 62 225 3.0 6.0 0.00 0.00 0.00 59 1010.3
20260504174350 62 215 2.0 4.0 0.00 0.00 0.00 62 1011.2
20260504173822 63 247 0.0 4.0 0.00 0.00 0.00 57 1011.2
20260504173324 62 240 1.0 4.0 0.00 0.00 0.00 57 1011.2
20260504173111 61 231 1.0 4.0 0.00 0.00 0.00 57 1010.4
20260504172830 61 232 1.0 4.0 0.00 0.00 0.00 58 1011.3
20260504172341 61 224 2.0 4.0 0.00 0.00 0.00 64 1011.4
20260504171900 61 246 0.0 0.0 0.00 0.00 0.00 58 1011.4
20260504171609 61 229 0.0 0.0 0.00 0.00 0.00 57 1010.6
20260504171319 61 236 0.0 0.0 0.00 0.00 0.00 60 1011.4
20260504170830 61 231 0.0 0.0 0.00 0.00 0.00 62 1011.4
20260504170322 61 249 0.0 0.0 0.00 0.00 0.00 63 1011.5
20260504170103 60 243 0.0 0.0 0.00 0.00 0.00 60 1010.6
20260504160318 59 235 0.0 2.0 0.00 0.00 0.00 64 1012.0
20260504160117 58 238 0.0 2.0 0.00 0.00 0.00 67 1011.2
20260504150848 58 31 0.0 0.0 0.00 0.00 0.00 60 1012.1
20260504150330 58 337 0.0 0.0 0.00 0.00 0.00 63 1012.2
20260504150104 57 34 0.0 2.0 0.00 0.00 0.00 58 1011.3
20260504141330 56 28 0.0 0.0 0.00 0.00 0.00 59 1011.8
20260504140836 55 78 0.0 0.0 0.00 0.00 0.00 61 1011.7
20260504140340 56 23 0.0 0.0 0.00 0.00 0.00 61 1011.7
20260504140105 55 34 0.0 0.0 0.00 0.00 0.00 61 1010.9
20260504130820 52 1 0.0 0.0 0.00 0.00 0.00 66 1011.3
20260504130320 52 98 0.0 0.0 0.00 0.00 0.00 65 1011.2
20260504120106 53 80 0.0 0.0 0.00 0.00 0.00 61 1010.2
20260504110343 56 86 0.0 0.0 0.00 0.00 0.00 56 1010.6
20260504100324 57 144 0.0 0.0 0.00 0.00 0.00 56 1010.5
20260504081834 59 62 0.0 0.0 0.00 0.00 0.00 56 1010.3
20260504081613 58 78 0.0 0.0 0.00 0.00 0.00 57 1009.6
20260504081318 59 75 0.0 0.0 0.00 0.00 0.00 60 1010.3
20260504080826 59 232 0.0 0.0 0.00 0.00 0.00 60 1010.3
20260504080320 60 121 0.0 4.0 0.00 0.00 0.00 60 1010.3
20260504070330 62 16 0.0 1.0 0.00 0.00 0.00 50 1010.0
20260504060105 61 77 0.0 0.0 0.00 0.00 0.00 50 1008.9
20260504050328 64 95 0.0 1.0 0.00 0.00 0.00 46 1009.5
20260504050104 64 96 0.0 3.0 0.00 0.00 0.00 48 1008.7
20260504045842 64 94 0.0 3.0 0.00 0.00 0.00 50 1009.6
20260504045320 65 21 1.0 2.0 0.00 0.00 0.00 48 1009.5
20260504044845 65 159 0.0 3.0 0.00 0.00 0.00 46 1009.5
20260504044608 64 131 0.0 3.0 0.00 0.00 0.00 48 1008.6
20260504044321 65 79 2.0 3.0 0.00 0.00 0.00 52 1009.5
20260504043820 65 103 0.0 1.0 0.00 0.00 0.00 51 1009.4
20260504043348 64 101 0.0 1.0 0.00 0.00 0.00 54 1009.4
20260504043113 64 89 0.0 1.0 0.00 0.00 0.00 57 1008.5
20260504042819 65 30 0.0 0.0 0.00 0.00 0.00 56 1009.4
20260504042329 65 103 0.0 0.0 0.00 0.00 0.00 57 1009.3
20260504041834 65 85 0.0 0.0 0.00 0.00 0.00 58 1009.3
20260504041617 65 48 0.0 0.0 0.00 0.00 0.00 56 1008.4
20260504041318 66 86 0.0 0.0 0.00 0.00 0.00 58 1009.3
20260504040829 66 86 0.0 0.0 0.00 0.00 0.00 52 1009.2
20260504040333 66 60 0.0 0.0 0.00 0.00 0.00 52 1009.2
20260504040103 66 177 0.0 0.0 0.00 0.00 0.00 61 1008.3
20260504035819 67 177 0.0 0.0 0.00 0.00 0.00 61 1009.1
20260504035356 68 176 0.0 1.0 0.00 0.00 0.00 46 1009.1
20260504034820 69 208 0.0 1.0 0.00 0.00 0.00 50 1009.1
20260504034628 68 208 0.0 1.0 0.00 0.00 0.00 46 1008.3
20260504034337 69 268 0.0 1.0 0.00 0.00 0.00 45 1009.1
20260504033847 69 107 0.0 1.0 0.00 0.00 0.00 45 1009.0
20260504033340 70 78 0.0 0.0 0.00 0.00 0.00 48 1008.9
20260504033010 70 105 0.0 0.0 0.00 0.00 0.00 46 1008.0
20260504032835 70 105 0.0 0.0 0.00 0.00 0.00 44 1008.9
20260504032321 71 276 0.0 1.0 0.00 0.00 0.00 46 1008.9
20260504031825 71 158 0.0 3.0 0.00 0.00 0.00 43 1008.8
20260504031520 71 134 0.0 3.0 0.00 0.00 0.00 46 1008.0
20260504031343 71 49 1.0 5.0 0.00 0.00 0.00 48 1008.9
20260504030853 72 177 1.0 5.0 0.00 0.00 0.00 46 1008.9
20260504030319 74 108 0.0 1.0 0.00 0.00 0.00 41 1008.9
20260504030100 73 108 0.0 4.0 0.00 0.00 0.00 41 1008.0
20260504025835 74 82 0.0 6.0 0.00 0.00 0.00 42 1008.9
20260504025358 74 79 2.0 6.0 0.00 0.00 0.00 40 1008.9
20260504024840 74 132 0.0 1.0 0.00 0.00 0.00 39 1008.8
20260504024516 74 98 0.0 1.0 0.00 0.00 0.00 41 1008.0
20260504024340 74 87 0.0 1.0 0.00 0.00 0.00 41 1008.9
20260504023842 74 152 0.0 1.0 0.00 0.00 0.00 43 1008.9
20260504023322 74 360 0.0 1.0 0.00 0.00 0.00 44 1009.0
20260504023104 73 231 0.0 1.0 0.00 0.00 0.00 45 1008.1
20260504022855 74 253 0.0 1.0 0.00 0.00 0.00 48 1008.9
20260504022330 75 245 0.0 3.0 0.00 0.00 0.00 47 1008.9
20260504021836 78 217 0.0 3.0 0.00 0.00 0.00 44 1008.9
20260504021607 79 283 0.0 3.0 0.00 0.00 0.00 41 1008.0
20260504021343 80 139 0.0 0.0 0.00 0.00 0.00 36 1008.9
20260504020824 80 138 0.0 1.0 0.00 0.00 0.00 34 1008.8
20260504020335 79 219 1.0 3.0 0.00 0.00 0.00 36 1008.8
20260504020133 78 222 0.0 3.0 0.00 0.00 0.00 36 1008.0
20260504015820 79 222 1.0 3.0 0.00 0.00 0.00 35 1008.9
20260504015329 80 249 2.0 3.0 0.00 0.00 0.00 33 1009.0
20260504014837 81 103 0.0 1.0 0.00 0.00 0.00 30 1009.0
20260504014604 80 103 0.0 5.0 0.00 0.00 0.00 33 1008.1
20260504014327 80 284 0.0 5.0 0.00 0.00 0.00 34 1008.9
20260504013842 80 291 4.0 5.0 0.00 0.00 0.00 30 1009.0
20260504013403 82 40 0.0 1.0 0.00 0.00 0.00 29 1008.9
20260504013118 82 84 0.0 0.0 0.00 0.00 0.00 29 1008.1
20260504012852 83 232 0.0 0.0 0.00 0.00 0.00 28 1008.9
20260504012331 81 232 0.0 0.0 0.00 0.00 0.00 29 1009.1
20260504011828 79 231 0.0 0.0 0.00 0.00 0.00 32 1009.1
20260504011605 78 231 0.0 0.0 0.00 0.00 0.00 33 1008.2
20260504011342 78 248 0.0 1.0 0.00 0.00 0.00 32 1009.1
20260504010833 77 249 0.0 2.0 0.00 0.00 0.00 35 1009.1
20260504010348 77 229 0.0 2.0 0.00 0.00 0.00 39 1009.2
20260504010014 79 259 1.0 2.0 0.00 0.00 0.00 32 1008.3
20260504005838 80 270 1.0 2.0 0.00 0.00 0.00 31 1009.2
20260504005327 79 169 0.0 0.0 0.00 0.00 0.00 33 1009.3
20260504004824 76 118 0.0 1.0 0.00 0.00 0.00 35 1009.4
20260504004603 74 162 0.0 1.0 0.00 0.00 0.00 37 1008.6
20260504004338 74 181 0.0 1.0 0.00 0.00 0.00 41 1009.6
20260504003857 74 239 0.0 2.0 0.00 0.00 0.00 46 1009.7
20260504003354 76 233 0.0 2.0 0.00 0.00 0.00 43 1009.6
20260504003103 77 257 0.0 2.0 0.00 0.00 0.00 36 1008.8
20260504002835 77 211 0.0 0.0 0.00 0.00 0.00 34 1009.7
20260504002324 76 211 0.0 3.0 0.00 0.00 0.00 40 1009.8
20260504001820 77 277 1.0 3.0 0.00 0.00 0.00 37 1009.8
20260504001616 77 307 0.0 3.0 0.00 0.00 0.00 34 1009.0
20260504001326 77 253 0.0 0.0 0.00 0.00 0.00 34 1009.9
20260504000829 74 232 0.0 2.0 0.00 0.00 0.00 37 1009.9
20260504000332 72 203 0.0 4.0 0.00 0.00 0.00 42 1010.0
20260504000106 71 239 0.0 4.0 0.00 0.00 0.00 46 1009.3
20260503235827 72 236 1.0 4.0 0.00 0.00 0.00 50 1010.1
20260503235336 73 266 0.0 3.0 0.00 0.00 0.00 41 1010.0
20260503234821 73 226 0.0 2.0 0.00 0.00 0.00 46 1010.1
20260503234618 72 222 0.0 2.0 0.00 0.00 0.00 44 1009.2
20260503234323 73 219 1.0 5.0 0.00 0.00 0.00 45 1010.2
20260503233838 72 208 1.0 5.0 0.00 0.00 0.00 45 1010.2
20260503233322 73 260 1.0 4.0 0.00 0.00 0.00 43 1010.2
20260503233105 72 225 0.0 5.0 0.00 0.00 0.00 40 1009.3
20260503232823 72 235 2.0 5.0 0.00 0.00 0.00 42 1010.2
20260503232344 71 231 4.0 5.0 0.00 0.00 0.00 42 1010.3
20260503231841 72 219 3.0 5.0 0.00 0.00 0.00 44 1010.4
20260503231606 72 246 1.0 2.0 0.00 0.00 0.00 40 1009.6
20260503231356 73 250 1.0 1.0 0.00 0.00 0.00 40 1010.4
20260503230846 72 226 0.0 5.0 0.00 0.00 0.00 43 1010.5
20260503230323 75 281 3.0 5.0 0.00 0.00 0.00 38 1010.6
20260503230110 75 287 0.0 2.0 0.00 0.00 0.00 34 1009.8
20260503225827 76 253 0.0 2.0 0.00 0.00 0.00 33 1010.7
20260503225337 75 253 1.0 3.0 0.00 0.00 0.00 34 1010.7
20260503224827 73 229 2.0 4.0 0.00 0.00 0.00 37 1010.8
20260503224601 72 236 1.0 7.0 0.00 0.00 0.00 38 1010.1
20260503224335 71 221 1.0 7.0 0.00 0.00 0.00 40 1010.9